Central Park, NY

2:06 PM EDT on March 29, 2017 (GMT -0400)
Central Park

Weather History for KNYC - April, 2014

Change the Weather History Date:

Tuesday, April 8, 2014

  Actual Average Record
Temperature  
Mean Temperature 55 °F 50 °F  
Max Temperature 64 °F 58 °F 90 °F (1991)
Min Temperature 46 °F 42 °F 25 °F (1982)
Degree Days  
Heating Degree Days 10 15  
Month to date heating degree days 122 129  
Since 1 July heating degree days 4634 4351  
Cooling Degree Days 0 0  
Month to date cooling degree days 0 0  
Year to date cooling degree days 0 1  
Growing Degree Days 4 (Base 50)    
Moisture  
Dew Point 44 °F    
Average Humidity 65    
Maximum Humidity 93    
Minimum Humidity 36    
Precipitation  
Precipitation 0.34 in 0.15 in 1.93 in (1940)
Month to date precipitation 1.14 1.26  
Year to date precipitation 13.08 12.36  
Snow  
Snow 0.00 in 0.00 in 4.20 in (1956)
Month to date snowfall 0.0 0.3  
Since 1 July snowfall 57.4 25.5  
Snow Depth 0.00 in    
Sea Level Pressure  
Sea Level Pressure 29.53 in    
Wind  
Wind Speed 7 mph (NW)    
Max Wind Speed 17 mph    
Max Gust Speed 30 mph    
Visibility 5 miles    
Events Fog , Rain    
T = Trace of Precipitation, MM = Missing Value Source: NWS Daily Summary

Daily Weather History Graph

Daily Weather History Graph

Search for Another Location

Airport or City:

Trip Planner

Search our weather history database for the weather conditions in past years. The results will help you decide how hot, cold, wet, or windy it might be!

Date:

Astronomy

Apr. 08, 2014 Rise Set
Actual Time 6:28 AM EDT 7:28 PM EDT
Civil Twilight 6:00 AM EDT 7:56 PM EDT
Nautical Twilight 5:26 AM EDT 8:29 PM EDT
Astronomical Twilight 4:52 AM EDT 9:04 PM EDT
Moon 1:17 PM EDT (4/8) 2:41 AM EDT (4/8)
Length of Visible Light 13h 55m
Length of Day
12h 59m
Waxing Gibbous, 62% of the Moon is Illuminated
Apr 8
Waxing Gibbous
Apr 15
Full
Apr 22
Last Quarter
Apr 29
New
May 6
First Quarter

Hourly Weather History & Observations

Time (EDT) Temp. Windchill Dew Point Humidity Pressure Visibility Wind Dir Wind Speed Gust Speed Precip Events Conditions
12:07 AM 45.0 °F 43.5 °F 43.0 °F 93% 29.73 in 1.5 mi ENE 3.5 mph - N/A   Overcast
12:27 AM 45.0 °F - 42.1 °F 90% 29.71 in 2.0 mi Calm Calm - N/A   Overcast
12:51 AM 45.0 °F 43.5 °F 43.0 °F 93% 29.66 in 2.0 mi Variable 3.5 mph - N/A   Overcast
1:13 AM 46.0 °F - 43.0 °F 89% 29.67 in 1.8 mi Calm Calm - N/A   Overcast
1:51 AM 46.9 °F - 44.1 °F 90% 29.63 in 1.0 mi SSE 5.8 mph - N/A   Overcast
2:11 AM 48.0 °F - 45.0 °F 89% 29.63 in 0.8 mi Variable 3.5 mph - N/A   Overcast
2:51 AM 46.9 °F - 45.0 °F 93% 29.58 in 0.5 mi Variable 3.5 mph - N/A Fog Fog
3:15 AM 48.0 °F - 46.0 °F 93% 29.59 in 1.8 mi SSE 4.6 mph - N/A   Overcast
3:24 AM 48.9 °F - 46.9 °F 93% 29.58 in 2.5 mi ESE 4.6 mph - 0.00 in Rain Light Rain
3:43 AM 48.9 °F - 46.9 °F 93% 29.56 in 3.0 mi SE 4.6 mph - 0.01 in Rain Light Rain
3:51 AM 48.9 °F - 46.9 °F 93% 29.54 in 4.0 mi SSE 4.6 mph - 0.01 in   Overcast
4:10 AM 48.9 °F - 46.9 °F 93% 29.55 in 2.0 mi Calm Calm - 0.00 in Rain Rain
4:12 AM 48.9 °F - 46.9 °F 93% 29.55 in 1.8 mi Variable 3.5 mph - 0.01 in Rain Rain
4:51 AM 48.0 °F - 46.0 °F 93% 29.53 in 1.0 mi NE 3.5 mph - 0.10 in Rain Heavy Rain
5:29 AM 48.9 °F - 46.0 °F 90% 29.52 in 2.5 mi NE 3.5 mph - 0.09 in   Overcast
5:51 AM 48.9 °F - 46.9 °F 93% 29.48 in 2.0 mi NE 3.5 mph - 0.09 in   Overcast
6:22 AM 48.9 °F - 46.9 °F 93% 29.52 in 1.0 mi NE 3.5 mph - 0.05 in Rain Heavy Rain
6:51 AM 48.9 °F - 46.9 °F 93% 29.46 in 2.5 mi Calm Calm - 0.13 in Rain Light Rain
7:51 AM 50.0 °F - 48.0 °F 93% 29.46 in 2.0 mi NNE 3.5 mph - 0.01 in   Overcast
8:05 AM 50.0 °F - 48.0 °F 93% 29.48 in 1.2 mi NE 3.5 mph - N/A   Overcast
8:51 AM 51.1 °F - 48.9 °F 92% 29.45 in 0.8 mi Calm Calm - N/A   Overcast
9:00 AM 52.0 °F - 48.9 °F 89% 29.47 in 1.0 mi NE 3.5 mph - N/A   Overcast
9:26 AM 52.0 °F - 48.9 °F 89% 29.46 in 0.8 mi Calm Calm - N/A   Overcast
9:44 AM 53.1 °F - 51.1 °F 93% 29.46 in 1.2 mi Calm Calm - N/A   Overcast
9:51 AM 55.0 °F - 52.0 °F 89% 29.44 in 2.0 mi North - - N/A   Overcast
9:59 AM 55.9 °F - 53.1 °F 90% 29.46 in 5.0 mi Variable 3.5 mph - N/A   Overcast
10:51 AM 57.9 °F - 54.0 °F 87% 29.44 in 5.0 mi WSW 9.2 mph - N/A   Mostly Cloudy
11:00 AM 59.0 °F - 54.0 °F 83% 29.46 in 7.0 mi North - - N/A   Partly Cloudy
11:51 AM 61.0 °F - 53.1 °F 75% 29.43 in 10.0 mi SW 9.2 mph - N/A   Mostly Cloudy
12:26 PM 62.1 °F - 51.1 °F 67% 29.43 in 10.0 mi West 10.4 mph 18.4 mph N/A   Mostly Cloudy
12:51 PM 63.0 °F - 48.9 °F 60% 29.41 in 10.0 mi WSW 10.4 mph 26.5 mph N/A   Mostly Cloudy
1:51 PM 63.0 °F - 45.0 °F 52% 29.41 in 10.0 mi West 10.4 mph 19.6 mph N/A   Mostly Cloudy
2:51 PM 64.0 °F - 39.9 °F 41% 29.42 in 10.0 mi WSW 10.4 mph 26.5 mph N/A   Mostly Cloudy
3:51 PM 62.1 °F - 37.9 °F 41% 29.44 in 10.0 mi Variable 4.6 mph 16.1 mph N/A   Mostly Cloudy
4:51 PM 62.1 °F - 36.0 °F 38% 29.45 in 10.0 mi WSW 8.1 mph 26.5 mph N/A   Mostly Cloudy
5:51 PM 60.1 °F - 35.1 °F 39% 29.49 in 10.0 mi WNW 9.2 mph 20.7 mph N/A   Mostly Cloudy
6:51 PM 59.0 °F - 34.0 °F 39% 29.51 in 10.0 mi West 12.7 mph 23.0 mph N/A   Clear
7:51 PM 57.0 °F - 33.1 °F 40% 29.55 in 10.0 mi WNW 5.8 mph 17.3 mph N/A   Clear
8:51 PM 55.0 °F - 30.9 °F 40% 29.59 in 10.0 mi NW 10.4 mph 19.6 mph N/A   Clear
9:51 PM 53.1 °F - 30.9 °F 43% 29.62 in 10.0 mi NW 12.7 mph 20.7 mph N/A   Clear
10:51 PM 51.1 °F - 32.0 °F 48% 29.62 in 10.0 mi WNW 11.5 mph 23.0 mph N/A   Partly Cloudy
11:51 PM 50.0 °F - 32.0 °F 50% 29.63 in 10.0 mi Variable 3.5 mph - N/A   Partly Cloudy